{"data":{"norad_id":48576,"intl_designator":"2021-041Z","name":"STARLINK-2228","alt_names":[],"object_type":"PAYLOAD","status":"ACTIVE","operator":null,"country":"US","launch_date":"2021-05-15","launch_site_code":"AFETR","launch_vehicle":null,"mission":null,"orbit_class":"UNKNOWN","rcs_meters":null,"size_class":null,"mass_kg":null,"dimensions":null,"purposes":["comms"],"wikipedia_slug":null,"has_3d_model":false,"image_url":null,"decayed_at":null,"tle_current":{"epoch":"2026-05-25T04:36:10.673280Z","epoch_age_seconds":58240,"freshness":"FRESH","line1":"1 48576U 21041Z   26145.19179020  .00007680  00000+0  25899-3 0  9991","line2":"2 48576  53.1574 105.2507 0001393  75.5433 284.5723 15.31701645277369","mean_motion":15.31701645,"eccentricity":0.0001393,"inclination_deg":53.1574,"raan_deg":105.2507,"arg_perigee_deg":75.5433,"mean_anomaly_deg":284.5723,"bstar":0.00025899,"rev_number":27736,"period_min":94.013086993845,"perigee_km":469.78104368828,"apogee_km":471.68913945299,"semimajor_km":6848.8720915706,"source":"CELESTRAK","updated_at":"2026-05-25T13:38:16.747336Z"}}}